SCP
0 0 0 0 0 0 0 0 0 0 0 0 0 0 0 0 0 0 0 0 0 0 0 0 0 0 0 0 0 0 0 0 0 0 0 0 0 0 0 0 0 0 0
0 0 0 0 0 0 0 0 0 0 0 0 0 0 0 0 0 0 0 0 0 0 0 0 0 0 0 0 0 0 0 0 0 0 0 0 0 0 0 0 0 0 0
0 0 0 0 0 0 0 0 0 0 0 0 0 0 0 0 0 0 0 0 0 0 0 0 0 0 0 0 0 0 0 0 0 0 0 0 0 0 0 0 0 0 0
0 0 0 0 0 0 0 0 0 0 0 0 0 0 0 0 0 0 0 0 0 0 0 0 0 0 0 0 0 0 0 0 0 0 0 0 0 0 0 0 0 0 0
0 0 0 0 0 0 0 0 0 0 0 0 0 0 0 0 0 0 0 0 0 0 0 0 0 0 0 0 0 0 0 0 0 0 0 0 0 0 0 0 0 0 0
0 0 0 0 0 0 0 0 0 0 0 0 0 0 0 0 0 0 0 0 0 0 0 0 0 0 0 0 0 0 0 0 0 0 0 0 0 0 0 0 0 0 0
0 0 0 0 0 0 0 0 0 0 0 0 0 0 0 0 0 0 0 0 0 0 0 0 0 0 0 0 0 0 0 0 0 0 0 0 0 0 0 0 0 0 0
0 0 0 0 0 0 0 0 0 0 0 0 0 0 0 0 0 0 0 0 0 0 0 0 0 0 0 0 0 0 0 0 0 0 0 0 0 0 0 0 0 0 0
0 0 0 0 0 0 0 0 0 0 0 0 0 0 0 0 0 0 0 0 0 0 0 0 0 0 0 0 0 0 0 0 0 0 0 0 0 0 0 0 0 0 0
0 0 0 0 0 0 0 0 0 0 0 0 0 0 0 0 0 0 0 0 0 0 0 0 0 0 0 0 0 0 0 0 0 0 0 0 0 0 0 0 0 0 0
0 0 0 0 0 0 0 0 0 0 0 0 0 0 0 0 0 0 0 0 0 0 0 0 0 0 0 0 0 0 0 0 0 0 0 0 0 0 0 0 0 0 0
0 0 0 0 0 0 0 0 0 0 0 0 0 0 0 0 0 0 0 0 0 0 0 0 0 0 0 0 0 0 0 0 0 0 0 0 0 0 0 0 0 0 0
0 0 0 0 0 0 0 0 0 0 0 0 0 0 0 0 0 0 0 0 0 0 0 0 0 0 0 0 0 0 0 0 0 0 0 0 0 0 0 0 0 0 0
0 0 0 0 0 0 0 0 0 0 0 0 0 0 0 0 0 0 0 0 0 0 0 0 0 0 0 0 0 0 0 0 0 0 0 0 0 0 0 0 0 0 0
0 0 0 0 0 0 0 0 0 0 0 0 0 0 0 0 0 0 0 0 0 0 0 0 0 0 0 0 0 0 0 0 0 0 0 0 0 0 0 0 0 0 0
0 0 0 0 0 0 0 0 0 0 0 0 0 0 0 0 0 0 0 0 0 0 0 0 0 0 0 0 0 0 0 0 0 0 0 0 0 0 0 0 0 0 0
0 0 0 0 0 0 0 0 0 0 0 0 0 0 0 0 0 0 0 0 0 0 0 0 0 0 0 0 0 0 0 0 0 0 0 0 0 0 0 0 0 0 0
0 0 0 0 0 0 0 0 0 0 0 0 0 0 0 0 0 0 0 0 0 0 0 0 0 0 0 0 0 0 0 0 0 0 0 0 0 0 0 0 0 0 0
0 0 0 0 0 0 0 0 0 0 0 0 0 0 0 0 0 0 0 0 0 0 0 0 0 0 0 0 0 0 0 0 0 0 0 0 0 0 0 0 0 0 0
0 0 0 0 0 0 0 0 0 0 0 0 0 0 0 0 0 0 0 0 0 0 0 0 0 0 0 0 0 0 0 0 0 0 0 0 0 0 0 0 0 0 0
0 0 0 0 0 0 0 0 0 0 0 0 0 0 0 0 0 0 0 0 0 0 0 0 0 0 0 0 0 0 0 0 0 0 0 0 0 0 0 0 0 0 0
0 0 0 0 0 0 0 0 0 0 0 0 0 0 0 0 0 0 0 0 0 0 0 0 0 0 0 0 0 0 0 0 0 0 0 0 0 0 0 0 0 0 0
0 0 0 0 0 0 0 0 0 0 0 0 0 0 0 0 0 0 0 0 0 0 0 0 0 0 0 0 0 0 0 0 0 0 0 0 0 0 0 0 0 0 0
0 0 0 0 0 0 0 0 0 0 0 0 0 0 0 0 0 0 0 0 0 0 0 0 0 0 0 0 0 0 0 0 0 0 0 0 0 0 0 0 0 0 0
0 0 0 0 0 0 0 0 0 0 0 0 0 0 0 0 0 0 0 0 0 0 0 0 0 0 0 0 0 0 0 0 0 0 0 0 0 0 0 0 0 0 0
0 0 0 0 0 0 0 0 0 0 0 0 0 0 0 0 0 0 0 0 0 0 0 0 0 0 0 0 0 0 0 0 0 0 0 0 0 0 0 0 0 0 0
Wind_Speed_500mb
52 52 47 44 32 12 5 22 24 12 14 15 14 13 16 17 17 17 16 17 17 18 19 20 22 24 25 28 31 34 39 45 54 63 62 62 66 71 74 74 76 80 80
48 53 38 20 13 23 23 14 14 14 17 16 15 17 18 19 19 18 19 18 18 21 23 24 25 27 29 31 36 39 41 45 57 66 65 63 64 70 75 82 83 82 79
41 35 34 32 27 25 15 16 17 17 19 19 20 20 22 22 22 21 20 19 21 23 24 26 29 31 33 35 38 42 46 49 56 64 66 64 67 75 82 85 86 87 83
49 36 27 28 29 20 17 22 21 21 24 24 23 23 26 25 24 23 23 23 24 26 29 31 32 33 35 37 40 45 50 54 56 56 62 67 70 75 80 89 95 90 92
41 37 30 29 24 22 25 26 26 29 29 26 27 28 29 29 29 26 26 27 29 31 34 34 35 36 39 40 43 47 50 53 54 56 62 66 70 78 82 85 89 95 95
37 35 33 28 27 29 30 31 34 33 31 30 32 33 33 34 33 32 31 31 34 35 36 37 37 37 37 39 41 43 47 50 51 54 58 60 65 70 74 78 83 89 101
36 35 31 32 33 33 35 37 36 35 35 36 36 37 38 41 41 38 36 36 37 38 40 39 39 39 41 38 40 40 44 45 49 50 53 56 65 65 68 73 75 78 83
37 36 39 37 37 40 41 40 39 39 39 40 40 41 44 46 47 45 44 42 42 43 43 41 40 40 40 43 42 42 44 46 48 48 51 55 58 60 60 65 72 77 81
44 42 41 41 43 44 44 40 41 42 44 43 44 47 51 52 52 52 51 49 47 48 48 45 40 40 40 43 45 43 44 47 48 48 48 50 52 53 56 65 68 76 90
41 43 46 46 46 46 42 43 44 47 46 47 49 53 57 57 56 58 55 54 55 53 52 47 42 41 43 44 45 44 46 50 50 50 50 47 49 52 52 54 59 64 66
44 45 45 45 45 44 45 48 48 48 50 53 56 57 59 59 58 61 62 62 60 56 54 49 43 44 45 43 45 45 46 54 49 54 55 51 49 49 48 50 53 55 58
38 40 41 42 44 47 48 48 48 51 56 58 60 61 62 61 60 63 64 64 61 62 57 50 46 46 45 42 45 45 50 50 52 55 55 53 52 49 48 50 52 53 48
32 35 39 41 43 44 47 48 53 57 62 63 66 67 64 61 60 64 63 65 64 66 58 53 49 48 44 44 45 46 49 49 53 55 55 54 52 52 52 53 51 56 56
27 31 35 40 43 47 51 55 60 64 68 69 70 72 68 65 63 64 67 67 65 63 60 57 52 49 47 47 46 47 46 49 53 55 54 53 52 52 50 53 57 61 65
35 39 42 46 50 55 60 64 69 71 73 74 75 75 74 73 67 64 64 65 63 61 61 60 59 53 49 48 46 43 46 50 51 50 51 52 53 54 51 50 52 57 57
40 41 43 48 54 61 65 70 71 75 75 76 75 78 76 74 70 66 66 67 65 60 67 67 63 53 50 48 45 43 47 49 49 49 49 52 54 54 53 47 48 50 55
44 46 48 52 57 61 65 71 76 72 76 73 73 75 76 74 68 64 59 54 49 44 62 59 55 51 48 47 46 47 49 48 49 47 50 51 52 52 49 45 46 48 49
48 50 53 55 58 61 64 68 71 75 76 74 66 64 67 68 61 61 48 44 57 61 68 69 63 54 50 48 47 48 48 48 47 48 49 48 49 52 47 41 40 44 45
40 42 45 48 51 55 58 62 65 67 69 70 66 59 57 60 62 56 55 62 71 77 72 68 59 54 50 47 46 47 49 45 45 47 45 45 45 48 43 39 38 38 37
38 40 44 47 50 53 55 58 60 63 65 66 66 60 53 52 61 67 64 76 79 71 68 65 62 56 49 46 46 48 46 43 42 42 42 42 40 41 38 35 33 35 31
40 44 50 54 58 60 62 64 64 65 66 67 66 58 55 57 60 62 69 79 84 73 67 59 55 50 45 44 47 45 41 36 33 34 32 31 32 30 30 30 30 28 27
51 55 59 63 65 67 68 69 69 69 68 68 66 61 51 55 62 62 63 62 69 69 67 60 52 44 43 45 43 37 32 27 25 27 23 24 24 23 24 24 25 23 21
60 65 69 73 76 78 78 77 76 75 74 71 66 62 53 53 61 59 55 52 60 64 62 52 44 43 44 40 32 31 24 20 19 17 16 17 18 20 22 23 22 19 19
71 76 80 81 82 84 85 84 82 78 74 72 68 62 57 51 52 52 51 53 48 49 47 46 44 41 35 30 29 23 17 15 12 9 7 10 14 17 18 19 18 17 19
79 81 83 84 85 84 84 81 78 75 71 68 66 61 55 51 49 48 50 53 51 49 49 45 39 30 29 24 20 14 13 9 5 4 6 10 14 18 19 19 18 17 16
81 82 83 83 83 81 80 80 77 74 71 64 60 57 51 47 45 45 47 51 52 48 45 37 30 29 23 22 17 12 10 9 8 5 10 17 20 20 20 19 18 18 17
Wind_Direction_500mb
176 172 158 152 152 159 284 290 273 272 282 269 267 275 283 297 310 314 316 322 324 326 327 327 324 323 322 320 322 325 325 325 323 324 329 331 334 334 336 336 337 342 344
157 152 150 153 168 239 247 226 254 260 255 259 264 273 284 295 299 300 304 311 313 317 319 318 317 317 317 320 322 321 321 325 325 324 329 331 331 332 334 338 340 341 342
161 165 182 223 238 246 228 259 257 251 258 260 265 275 283 287 285 289 295 300 307 312 311 311 312 312 314 315 318 321 325 325 325 324 324 330 333 336 337 336 336 339 343
185 200 237 240 242 227 258 256 259 258 257 260 267 273 275 276 280 286 289 299 304 306 305 305 303 305 308 314 320 321 322 323 321 321 326 330 335 337 335 335 335 339 339
217 234 241 230 226 249 257 263 258 257 260 266 268 271 274 279 280 282 288 293 296 297 295 296 297 302 311 317 319 317 318 320 322 329 327 329 334 335 336 334 332 334 335
232 238 222 225 249 259 260 261 258 260 265 268 270 274 277 277 277 280 282 283 285 287 289 291 295 303 306 309 311 314 317 322 323 325 326 328 330 332 330 331 330 333 332
225 215 227 246 258 262 263 262 264 267 269 270 273 277 279 277 276 276 277 277 278 282 282 285 290 297 298 300 307 310 312 318 319 322 322 326 326 328 327 326 327 328 327
220 231 244 257 261 262 266 268 268 269 271 273 277 278 277 277 276 276 276 276 276 277 277 280 286 290 293 300 303 308 314 316 316 321 320 320 321 322 323 321 325 322 326
237 248 260 265 262 264 268 271 271 272 272 277 280 281 282 279 275 274 274 273 272 273 274 275 280 286 290 293 298 306 311 311 314 316 315 316 316 319 320 320 326 332 332
258 267 266 261 263 267 272 273 272 271 275 279 282 283 280 278 275 274 272 271 271 270 271 272 278 284 285 288 295 303 306 306 310 313 314 314 316 317 318 322 328 332 334
263 263 261 263 267 273 274 272 272 275 278 280 282 282 281 280 276 274 273 270 270 268 268 269 273 275 278 284 290 300 302 305 313 311 312 314 314 313 319 327 329 330 329
262 261 264 270 272 271 270 271 273 275 278 283 285 284 284 281 278 273 271 271 270 267 268 267 267 267 272 279 286 292 294 304 306 309 310 312 313 320 325 326 326 325 328
262 266 267 268 271 273 274 275 277 281 283 285 284 285 285 285 281 277 274 270 268 268 267 262 261 264 268 273 279 285 293 299 303 305 308 311 316 321 323 323 324 322 324
277 278 277 277 278 279 280 282 283 285 286 285 286 286 287 285 280 276 273 271 267 262 262 260 260 263 267 271 274 280 291 297 301 305 307 309 313 314 320 324 325 324 323
286 285 285 286 285 284 284 286 285 285 285 286 286 285 284 283 285 279 273 268 264 260 257 255 257 262 265 268 273 282 289 293 298 302 302 306 309 313 321 323 321 322 326
294 293 291 287 284 283 284 285 285 287 287 286 285 285 285 285 283 279 275 269 261 250 248 250 255 257 261 265 272 280 288 294 299 301 302 305 308 312 316 320 317 321 327
306 304 300 297 294 293 292 291 292 291 289 287 286 286 285 285 281 278 271 258 246 235 243 252 254 257 259 265 274 283 290 295 297 298 301 303 304 306 310 316 317 321 325
304 303 302 300 298 297 296 295 295 295 295 293 288 283 279 278 274 274 262 240 238 232 242 250 253 259 260 265 274 283 290 294 297 298 299 301 301 300 306 310 312 317 323
304 305 305 305 305 304 303 302 300 298 297 296 294 286 279 272 267 257 255 242 238 242 251 251 252 258 262 268 276 284 290 294 296 295 296 297 296 295 300 301 308 314 321
320 319 317 315 314 312 309 307 305 303 301 299 296 295 285 270 260 251 244 243 241 252 254 252 252 258 263 270 279 286 289 294 294 295 297 299 297 296 297 299 306 311 317
321 320 320 320 319 316 313 310 307 303 300 298 297 295 287 275 267 261 252 243 248 254 255 253 252 256 263 272 279 283 289 292 293 296 301 301 297 296 291 295 302 308 314
317 316 314 313 311 310 308 306 304 302 300 298 297 293 286 274 270 264 261 254 249 252 251 253 252 255 264 272 277 282 284 288 293 301 307 306 305 302 296 297 300 304 308
311 310 310 310 309 307 304 302 300 298 297 295 293 290 283 272 268 266 262 257 248 245 244 245 245 253 261 268 271 274 278 288 300 306 313 313 313 307 303 304 299 297 301
311 310 309 308 306 304 303 302 300 298 296 294 292 289 284 276 267 262 254 251 249 241 237 238 243 251 259 260 265 269 283 293 293 299 326 336 331 319 312 305 296 295 302
309 309 308 307 305 304 302 301 300 299 298 295 293 290 284 276 266 257 249 244 243 238 238 237 243 249 249 249 248 260 281 283 269 278 319 328 332 332 323 312 301 296 298
315 313 312 310 309 307 306 305 304 304 303 302 296 290 285 276 267 258 249 242 238 236 234 238 241 245 237 228 229 242 255 239 217 267 321 325 331 329 325 319 308 303 301
Wind_Speed_850mb
52 52 47 44 32 12 5 22 24 12 14 15 14 13 16 17 17 17 16 17 17 18 19 20 22 24 25 28 31 34 39 45 54 63 62 62 66 71 74 74 76 80 80
48 53 38 20 13 23 23 14 14 14 17 16 15 17 18 19 19 18 19 18 18 21 23 24 25 27 29 31 36 39 41 45 57 66 65 63 64 70 75 82 83 82 79
41 35 34 32 27 25 15 16 17 17 19 19 20 20 22 22 22 21 20 19 21 23 24 26 29 31 33 35 38 42 46 49 56 64 66 64 67 75 82 85 86 87 83
49 36 27 28 29 20 17 22 21 21 24 24 23 23 26 25 24 23 23 23 24 26 29 31 32 33 35 37 40 45 50 54 56 56 62 67 70 75 80 89 95 90 92
41 37 30 29 24 22 25 26 26 29 29 26 27 28 29 29 29 26 26 27 29 31 34 34 35 36 39 40 43 47 50 53 54 56 62 66 70 78 82 85 89 95 95
37 35 33 28 27 29 30 31 34 33 31 30 32 33 33 34 33 32 31 31 34 35 36 37 37 37 37 39 41 43 47 50 51 54 58 60 65 70 74 78 83 89 101
36 35 31 32 33 33 35 37 36 35 35 36 36 37 38 41 41 38 36 36 37 38 40 39 39 39 41 38 40 40 44 45 49 50 53 56 65 65 68 73 75 78 83
37 36 39 37 37 40 41 40 39 39 39 40 40 41 44 46 47 45 44 42 42 43 43 41 40 40 40 43 42 42 44 46 48 48 51 55 58 60 60 65 72 77 81
44 42 41 41 43 44 44 40 41 42 44 43 44 47 51 52 52 52 51 49 47 48 48 45 40 40 40 43 45 43 44 47 48 48 48 50 52 53 56 65 68 76 90
41 43 46 46 46 46 42 43 44 47 46 47 49 53 57 57 56 58 55 54 55 53 52 47 42 41 43 44 45 44 46 50 50 50 50 47 49 52 52 54 59 64 66
44 45 45 45 45 44 45 48 48 48 50 53 56 57 59 59 58 61 62 62 60 56 54 49 43 44 45 43 45 45 46 54 49 54 55 51 49 49 48 50 53 55 58
38 40 41 42 44 47 48 48 48 51 56 58 60 61 62 61 60 63 64 64 61 62 57 50 46 46 45 42 45 45 50 50 52 55 55 53 52 49 48 50 52 53 48
32 35 39 41 43 44 47 48 53 57 62 63 66 67 64 61 60 64 63 65 64 66 58 53 49 48 44 44 45 46 49 49 53 55 55 54 52 52 52 53 51 56 56
27 31 35 40 43 47 51 55 60 64 68 69 70 72 68 65 63 64 67 67 65 63 60 57 52 49 47 47 46 47 46 49 53 55 54 53 52 52 50 53 57 61 65
35 39 42 46 50 55 60 64 69 71 73 74 75 75 74 73 67 64 64 65 63 61 61 60 59 53 49 48 46 43 46 50 51 50 51 52 53 54 51 50 52 57 57
40 41 43 48 54 61 65 70 71 75 75 76 75 78 76 74 70 66 66 67 65 60 67 67 63 53 50 48 45 43 47 49 49 49 49 52 54 54 53 47 48 50 55
44 46 48 52 57 61 65 71 76 72 76 73 73 75 76 74 68 64 59 54 49 44 62 59 55 51 48 47 46 47 49 48 49 47 50 51 52 52 49 45 46 48 49
48 50 53 55 58 61 64 68 71 75 76 74 66 64 67 68 61 61 48 44 57 61 68 69 63 54 50 48 47 48 48 48 47 48 49 48 49 52 47 41 40 44 45
40 42 45 48 51 55 58 62 65 67 69 70 66 59 57 60 62 56 55 62 71 77 72 68 59 54 50 47 46 47 49 45 45 47 45 45 45 48 43 39 38 38 37
38 40 44 47 50 53 55 58 60 63 65 66 66 60 53 52 61 67 64 76 79 71 68 65 62 56 49 46 46 48 46 43 42 42 42 42 40 41 38 35 33 35 31
40 44 50 54 58 60 62 64 64 65 66 67 66 58 55 57 60 62 69 79 84 73 67 59 55 50 45 44 47 45 41 36 33 34 32 31 32 30 30 30 30 28 27
51 55 59 63 65 67 68 69 69 69 68 68 66 61 51 55 62 62 63 62 69 69 67 60 52 44 43 45 43 37 32 27 25 27 23 24 24 23 24 24 25 23 21
60 65 69 73 76 78 78 77 76 75 74 71 66 62 53 53 61 59 55 52 60 64 62 52 44 43 44 40 32 31 24 20 19 17 16 17 18 20 22 23 22 19 19
71 76 80 81 82 84 85 84 82 78 74 72 68 62 57 51 52 52 51 53 48 49 47 46 44 41 35 30 29 23 17 15 12 9 7 10 14 17 18 19 18 17 19
79 81 83 84 85 84 84 81 78 75 71 68 66 61 55 51 49 48 50 53 51 49 49 45 39 30 29 24 20 14 13 9 5 4 6 10 14 18 19 19 18 17 16
81 82 83 83 83 81 80 80 77 74 71 64 60 57 51 47 45 45 47 51 52 48 45 37 30 29 23 22 17 12 10 9 8 5 10 17 20 20 20 19 18 18 17
Wind_Direction_850mb
176 172 158 152 152 159 284 290 273 272 282 269 267 275 283 297 310 314 316 322 324 326 327 327 324 323 322 320 322 325 325 325 323 324 329 331 334 334 336 336 337 342 344
157 152 150 153 168 239 247 226 254 260 255 259 264 273 284 295 299 300 304 311 313 317 319 318 317 317 317 320 322 321 321 325 325 324 329 331 331 332 334 338 340 341 342
161 165 182 223 238 246 228 259 257 251 258 260 265 275 283 287 285 289 295 300 307 312 311 311 312 312 314 315 318 321 325 325 325 324 324 330 333 336 337 336 336 339 343
185 200 237 240 242 227 258 256 259 258 257 260 267 273 275 276 280 286 289 299 304 306 305 305 303 305 308 314 320 321 322 323 321 321 326 330 335 337 335 335 335 339 339
217 234 241 230 226 249 257 263 258 257 260 266 268 271 274 279 280 282 288 293 296 297 295 296 297 302 311 317 319 317 318 320 322 329 327 329 334 335 336 334 332 334 335
232 238 222 225 249 259 260 261 258 260 265 268 270 274 277 277 277 280 282 283 285 287 289 291 295 303 306 309 311 314 317 322 323 325 326 328 330 332 330 331 330 333 332
225 215 227 246 258 262 263 262 264 267 269 270 273 277 279 277 276 276 277 277 278 282 282 285 290 297 298 300 307 310 312 318 319 322 322 326 326 328 327 326 327 328 327
220 231 244 257 261 262 266 268 268 269 271 273 277 278 277 277 276 276 276 276 276 277 277 280 286 290 293 300 303 308 314 316 316 321 320 320 321 322 323 321 325 322 326
237 248 260 265 262 264 268 271 271 272 272 277 280 281 282 279 275 274 274 273 272 273 274 275 280 286 290 293 298 306 311 311 314 316 315 316 316 319 320 320 326 332 332
258 267 266 261 263 267 272 273 272 271 275 279 282 283 280 278 275 274 272 271 271 270 271 272 278 284 285 288 295 303 306 306 310 313 314 314 316 317 318 322 328 332 334
263 263 261 263 267 273 274 272 272 275 278 280 282 282 281 280 276 274 273 270 270 268 268 269 273 275 278 284 290 300 302 305 313 311 312 314 314 313 319 327 329 330 329
262 261 264 270 272 271 270 271 273 275 278 283 285 284 284 281 278 273 271 271 270 267 268 267 267 267 272 279 286 292 294 304 306 309 310 312 313 320 325 326 326 325 328
262 266 267 268 271 273 274 275 277 281 283 285 284 285 285 285 281 277 274 270 268 268 267 262 261 264 268 273 279 285 293 299 303 305 308 311 316 321 323 323 324 322 324
277 278 277 277 278 279 280 282 283 285 286 285 286 286 287 285 280 276 273 271 267 262 262 260 260 263 267 271 274 280 291 297 301 305 307 309 313 314 320 324 325 324 323
286 285 285 286 285 284 284 286 285 285 285 286 286 285 284 283 285 279 273 268 264 260 257 255 257 262 265 268 273 282 289 293 298 302 302 306 309 313 321 323 321 322 326
294 293 291 287 284 283 284 285 285 287 287 286 285 285 285 285 283 279 275 269 261 250 248 250 255 257 261 265 272 280 288 294 299 301 302 305 308 312 316 320 317 321 327
306 304 300 297 294 293 292 291 292 291 289 287 286 286 285 285 281 278 271 258 246 235 243 252 254 257 259 265 274 283 290 295 297 298 301 303 304 306 310 316 317 321 325
304 303 302 300 298 297 296 295 295 295 295 293 288 283 279 278 274 274 262 240 238 232 242 250 253 259 260 265 274 283 290 294 297 298 299 301 301 300 306 310 312 317 323
304 305 305 305 305 304 303 302 300 298 297 296 294 286 279 272 267 257 255 242 238 242 251 251 252 258 262 268 276 284 290 294 296 295 296 297 296 295 300 301 308 314 321
320 319 317 315 314 312 309 307 305 303 301 299 296 295 285 270 260 251 244 243 241 252 254 252 252 258 263 270 279 286 289 294 294 295 297 299 297 296 297 299 306 311 317
321 320 320 320 319 316 313 310 307 303 300 298 297 295 287 275 267 261 252 243 248 254 255 253 252 256 263 272 279 283 289 292 293 296 301 301 297 296 291 295 302 308 314
317 316 314 313 311 310 308 306 304 302 300 298 297 293 286 274 270 264 261 254 249 252 251 253 252 255 264 272 277 282 284 288 293 301 307 306 305 302 296 297 300 304 308
311 310 310 310 309 307 304 302 300 298 297 295 293 290 283 272 268 266 262 257 248 245 244 245 245 253 261 268 271 274 278 288 300 306 313 313 313 307 303 304 299 297 301
311 310 309 308 306 304 303 302 300 298 296 294 292 289 284 276 267 262 254 251 249 241 237 238 243 251 259 260 265 269 283 293 293 299 326 336 331 319 312 305 296 295 302
309 309 308 307 305 304 302 301 300 299 298 295 293 290 284 276 266 257 249 244 243 238 238 237 243 249 249 249 248 260 281 283 269 278 319 328 332 332 323 312 301 296 298
315 313 312 310 309 307 306 305 304 304 303 302 296 290 285 276 267 258 249 242 238 236 234 238 241 245 237 228 229 242 255 239 217 267 321 325 331 329 325 319 308 303 301